Flag for U.S.A. Weather past 2 weeks in Grand Prairie, Texas, U.S.A.

Now
81 °F

Clear.


Feels Like: 85 °F
Forecast: 78 / 90 °F
Wind: 14 mph from South

Location: Grand Prairie Municipal Airport

Current Time: Jul 7, 2015 at 2:04:38 AM

Latest Report: Jul 7, 2015 at 1:15 AM


Visibility: 10 mi

Pressure: 29.97 "Hg

Humidity: 76%

Dew point: 72 °F

Location of Grand PrairieLocation

Historic Weather in Grand Prairie — Graph

°F

Grand Prairie temperature yesterday

Maximum temperature yesterday: 91 °F (at 2:50 PM)
Minimum temperature yesterday: 79 °F (at 4:55 AM)
Average temperature yesterday: 83 °F

Past Weeks' High & Low Weather Summary

 TemperatureHumidityPressure
High93 °F (Jun 24, 4:50 PM)100% (Jun 22, 6:50 AM)32.99 "Hg (Jun 22, 6:50 AM)
Low71 °F (Jun 30, 4:55 AM)34% (Jun 28, 3:50 PM)29.87 "Hg (Jul 6, 7:50 PM)
Average82 °F71%30.03 "Hg
* Reported Jun 22 1:15 AM — Jul 7 1:15 AM, Grand Prairie, Weather by CustomWeather, © 2015

Note: Actual official high and low records may vary slightly from our data, if they occured in-between our weather recording intervals... More about our weather records

Advertising

Grand Prairie weather history for previous 24 hours

 ConditionsComfort  
Time TempWeatherWind HumidityBarometerVisibility
1:15 AM
Tue, Jul 7
81 °FClear.14 mph76%29.97 "Hg10 mi
12:55 AM81 °FClear.13 mph73%29.97 "Hg10 mi
12:35 AM82 °FClear.12 mph72%29.98 "Hg10 mi
12:15 AM82 °FClear.13 mph70%29.99 "Hg10 mi
11:55 PM
Mon, Jul 6
83 °FClear.12 mph69%29.99 "Hg10 mi
11:35 PM83 °FClear.10 mph69%29.99 "Hg10 mi
11:15 PM83 °FClear.9 mph67%29.98 "Hg10 mi
10:55 PM83 °FClear.10 mph66%29.98 "Hg10 mi
10:15 PM84 °FClear.9 mph64%29.97 "Hg10 mi
9:55 PM85 °FClear.9 mph62%29.97 "Hg10 mi
9:35 PM85 °FSunny.12 mph62%29.95 "Hg10 mi
9:15 PM85 °FSunny.9 mph62%29.94 "Hg10 mi
8:55 PM86 °FSunny.9 mph61%29.93 "Hg10 mi
8:35 PM87 °FSunny.15 mph60%29.91 "Hg10 mi
8:15 PM87 °FSunny.13 mph59%29.89 "Hg7 mi
7:50 PM88 °FSunny.15 mph55%29.87 "Hg10 mi
6:50 PM90 °FSunny.14 mph49%29.89 "Hg10 mi
5:50 PM91 °FSunny.15 mph46%29.93 "Hg7 mi
4:50 PM91 °FSunny.18 mph44%29.96 "Hg10 mi
3:50 PM91 °FSunny.17 mph44%32.98 "Hg10 mi
2:50 PM91 °FSunny.18 mph44%32.99 "Hg10 mi
1:50 PM90 °FSunny.16 mph55%30.00 "Hg10 mi
12:50 PM90 °FSunny.18 mph55%30.02 "Hg10 mi
11:50 AM86 °FSunny.17 mph62%30.03 "Hg10 mi
10:50 AM84 °FSunny.14 mph66%30.04 "Hg10 mi
9:50 AM82 °FSunny.12 mph70%30.04 "Hg10 mi
8:50 AM81 °FSunny.13 mph79%30.03 "Hg10 mi
7:50 AM79 °FSunny.13 mph84%30.03 "Hg10 mi
6:50 AM79 °FWarm.13 mph84%30.01 "Hg10 mi
6:35 AM79 °FPassing clouds.10 mph82%30.00 "Hg10 mi
6:15 AM79 °FPassing clouds.13 mph82%30.00 "Hg10 mi
5:55 AM79 °FPassing clouds.10 mph84%30.00 "Hg10 mi
5:35 AM79 °FPassing clouds.12 mph84%29.99 "Hg10 mi
5:15 AM79 °FPassing clouds.14 mph83%29.99 "Hg10 mi
4:55 AM79 °FClear.10 mph84%29.99 "Hg10 mi
4:15 AM79 °FClear.12 mph82%29.99 "Hg10 mi
3:55 AM79 °FClear.12 mph82%29.98 "Hg10 mi
3:35 AM79 °FClear.12 mph82%29.98 "Hg10 mi
3:15 AM80 °FPassing clouds.12 mph81%29.98 "Hg10 mi
2:55 AM80 °FClear.12 mph81%29.98 "Hg10 mi
2:35 AM80 °FClear.16 mph79%29.98 "Hg10 mi
2:15 AM80 °FClear.13 mph79%29.98 "Hg10 mi
Weather by CustomWeather, © 2015

See weather overviewHow to use our weather pages